Volver al catálogo

SL-14 R/B

ActivoPO
NORAD 11087·ROCKET BODY·🇷🇺 Russia

Lanzado Oct 26, 1978 desde Plesetsk Cosmodrome

Loading…

Próximos Pases (próximas 24 horas)

TLE

ActualizadoSource: Space-Track

Época: Sep 14, 2026, 04:41 UTC

1 11087U 78100D   26257.19569752  .00000041  00000-0  42067-3 0  9996
2 11087  82.5553 346.1043 0010278 125.8478 259.2585 11.97035345 92411

Sigue SL-14 R/B en tiempo real con AllMySat

Download on the App Store